リニア彗星

219P/LINEAR (2010)

English version
Home page
Updated on July 15, 2011

---------------------------------------------------------------------

・ プロフィール

符号 219P/2009 H1
検出日 2009年4月17日
検出光度 18.8等
検出者 E. Guido, G. Sostero, P. Camilleri, and E. Prosperi (Mayhill, NM, U.S.A.)

・ 写真集

・ 軌道要素

                    Epoch = 2010 Mar. 25.0 TT
     T = 2010 Mar.  5.73233 TT        Peri. = 107.76353
     e = 0.3532609                    Node  = 231.05130 2000.0
     q = 2.3643294 AU                 Incl. =  11.52093
       a =  3.6557699 AU   n = 0.14100542   P =   6.99 years

・ 星図

・ 光度変化

        m1 = 7.3 + 5 logΔ + 20 log r(t + 70)

---------------------------------------------------------------------

軌道要素は、CBET 1772に掲載されたものです。
星図はステラナビゲータ Ver.8 (アストロアーツ) で作成したものです。
光度グラフはComet for Windowsで作成したものです。

---------------------------------------------------------------------

Copyright(C) Seiichi Yoshida (comet@aerith.net). All rights reserved.